Location: Burgwalden
(48.2830°N, 10.7576°E)
Time: 01:19:47
(UTC+00:00)

YAOGAN 11 - Pass Details

Date: 26 September 2023
Orbit: 609 x 660 km, 98.4° (Epoch: 04 December)

Event Time Altitude Azimuth Distance (km) Brightness Sun altitude
Rises 02:54:41 0° 163° (SSE) 2,982 7.5 -22.4°
Reaches altitude 10° 02:56:54 10° 163° (SSE) 2,071 6.7 -22.1°
Maximum altitude 03:01:26 88° 79° (ENE) 664 4.1 -21.4°
Drops below altitude 10° 03:05:58 10° 346° (NNW) 2,066 6.8 -20.7°
Sets 03:08:10 0° 346° (NNW) 2,974 7.7 -20.4°
